www.pogodaiklimat.ru

Погода и климат >> Архив погоды >> Австралия >> Северная территория >> Кинтор


ПОГОДА в Кинторе

  • Прогноз погоды в Кинторе
  • Монитор погоды в Кинторе

АРХИВ ПОГОДЫ в Кинторе

Время (UTC), дата Ветер
(напр.,м/с)
 
Видим.   Явления Облачность Т
(С)
Тd
(С)
f
(%)
Тe
(С)
Тes
(С)
Комфортность P
(гПа)
Po
(гПа)
Тmin
(С)
Tmax
(С)
R
(мм)
R24
(мм)
S
(см)
11 15.01 В 4 н/о н/о +39.7 +3.7 11 +37 +37 очень
жарко
1002.4 952.8
14 15.01 ЮВ 2 н/о н/о +34.0 +3.7 15 +31 +31 жарко 1003.2 953.5 +46.2
17 15.01 СВ 4 н/о н/о +33.6 +7.5 20 +32 +32 жарко 1002.4 952.8
20 15.01 СВ 3 н/о н/о +29.6 +9.2 28 +29 +29 жарко 1003.6 953.9
23 15.01 СЗ 8 н/о н/о +37.0 +11.1 21 +36 +36 очень
жарко
1005.7 955.9
02 16.01 СЗ 6 н/о н/о +40.8 +8.1 14 +39 +39 очень
жарко
1004.5 954.8 +29.2
05 16.01 С 4 н/о н/о +42.0 +7.9 13 +40 +40 очень
жарко
1001.6 952.0
08 16.01 С 9 н/о н/о +39.8 +10.2 17 +38 +38 очень
жарко
1000.5 951.0
11 16.01 С 4 н/о н/о +36.2 +12.4 24 +36 +36 очень
жарко
1002.4 952.8
14 16.01 СВ 2 н/о н/о +33.2 +11.1 26 +33 +33 жарко 1003.1 953.4 +44.8
17 16.01 З 6 н/о {туман} н/о +28.2 +18.6 56 +33 +33 очень
душно
1004.7 954.9
20 16.01 З 5 н/о н/о +26.7 +19.3 64 +32 +32 очень
душно
1003.4 953.7
23 16.01 З 6 н/о н/о +33.9 +14.4 31 +35 +35 очень
жарко
1005.2 955.4
02 17.01 З 4 н/о н/о +38.6 +10.0 18 +37 +37 очень
жарко
1004.5 954.8 +26.5
05 17.01 ЮЗ 6 н/о н/о +42.9 +7.4 12 +41 +41 опасность
перегрева
1001.3 951.7
08 17.01 Ю 4 н/о н/о +41.8 +4.0 10 +39 +39 очень
жарко
999.1 949.6
11 17.01 З 2 н/о н/о +37.1 +6.2 15 +35 +35 очень
жарко
1000.8 951.2
14 17.01 ЮЗ 3 н/о н/о +33.9 +8.5 21 +32 +32 жарко 1002.1 952.5 +44.3
17 17.01 С 6 н/о н/о +32.9 +13.0 30 +34 +34 очень
жарко
1001.8 952.2
20 17.01 С 3 н/о н/о +30.5 +14.6 38 +33 +33 душно 1003.6 953.9
23 17.01 С 8 н/о н/о +34.7 +14.0 29 +36 +36 душно 1005.1 955.3
02 18.01 СЗ 6 н/о н/о +37.0 +13.7 25 +37 +37 очень
жарко
1005.1 955.3 +30.5
05 18.01 С 5 н/о н/о +40.9 +10.1 16 +39 +39 очень
жарко
1002.7 953.0
08 18.01 ЮВ 10 н/о н/о +32.3 +17.4 41 +36 +36 очень
душно
1002.5 952.9
11 18.01 ЮВ 10 н/о н/о +30.8 +14.8 38 +33 +33 душно 1007.5 957.6
14 18.01 ЮВ 11 н/о н/о +28.9 +15.1 43 +31 +31 жарко 1007.7 957.8 +42.3
17 18.01 ЮВ 7 н/о н/о +28.4 +16.7 49 +32 +32 душно 1008.0 958.1
20 18.01 ЮВ 9 н/о н/о +26.5 +17.6 58 +31 +31 душно 1008.1 958.2
23 18.01 В 7 н/о н/о +31.6 +15.1 37 +34 +34 душно 1009.8 959.8
02 19.01 ЮВ 5 н/о н/о +38.6 +12.4 21 +38 +38 очень
жарко
1008.5 958.6 +26.4
05 19.01 В 7 н/о н/о +41.4 +8.5 14 +39 +39 очень
жарко
1005.7 955.9
08 19.01 Ю 5 н/о н/о +40.2 +10.5 17 +39 +39 очень
жарко
1004.2 954.5
11 19.01 ЮВ 5 н/о {туман} н/о +31.4 +18.0 45 +36 +36 очень
душно
1007.9 958.0
14 19.01 ЮВ 8 н/о {туман} н/о +30.4 +16.0 42 +33 +33 душно 1008.8 958.8 +43.4
17 19.01 ЮВ 9 н/о {туман} н/о +29.2 +17.1 48 +33 +33 очень
душно
1007.5 957.6
20 19.01 ЮВ 10 н/о н/о +28.1 +15.4 46 +31 +31 душно 1007.5 957.6
23 19.01 ЮВ 10 н/о н/о +29.7 +11.2 32 +30 +30 жарко 1009.5 959.5
02 20.01 В 7 н/о н/о +40.7 +8.0 14 +39 +39 очень
жарко
1008.3 958.4 +27.6
05 20.01 В 3 н/о н/о +42.4 +5.8 11 +40 +40 очень
жарко
1005.3 955.5
08 20.01 В 4 н/о н/о +43.6 +0.3 7 +40 +40 очень
жарко
1003.1 953.4
11 20.01 ЮВ 5 н/о н/о +39.9 +2.5 10 +36 +36 очень
жарко
1005.1 955.3
14 20.01 ЮВ 8 н/о н/о +36.9 +5.0 14 +34 +34 очень
жарко
1005.7 955.9 +44.4
17 20.01 ЮВ 10 н/о н/о +33.5 +8.2 21 +32 +32 жарко 1004.3 954.6
20 20.01 ЮВ 8 н/о н/о +31.9 +8.2 23 +31 +31 жарко 1004.8 955.0
23 20.01 СВ 7 н/о н/о +36.3 +6.5 16 +34 +34 очень
жарко
1006.6 956.8
02 21.01 С 8 н/о н/о +41.4 +7.4 13 +39 +39 очень
жарко
1006.0 956.2 +31.7
05 21.01 ЮВ 5 н/о н/о +43.5 +5.2 10 +41 +41 опасность
перегрева
1003.0 953.3
08 21.01 С 3 н/о н/о +42.4 +4.4 10 +39 +39 очень
жарко
1001.4 951.8
11 21.01 В 5 н/о н/о +39.7 +3.7 11 +37 +37 очень
жарко
1003.3 953.6
14 21.01 ЮВ 7 н/о н/о +38.5 +4.1 12 +35 +35 очень
жарко
1003.6 953.9 +44.5
17 21.01 СВ 4 н/о н/о +34.2 +5.7 17 +32 +32 жарко 1003.3 953.6
20 21.01 СВ 5 н/о н/о +31.4 +5.0 19 +29 +29 жарко 1003.9 954.2
23 21.01 СЗ 5 н/о н/о +35.5 +14.7 29 +37 +37 душно 1006.0 956.2

 

Местоположение метеостанции Кинтор (Северная территория, Австралия): широта -23.27 долгота 129.37 высота над уровнем моря 455 м.

В архиве по умолчанию представлена погода в Кинторе за последнюю неделю. Архивные данные за месяц целиком и за предыдущие месяцы, начиная с января 2011 года, Вы можете получить, выбрав интересующий диапазон дат из раскрывающегося списка и нажав кнопку "Ввод!".


*Определитесь, кто Вы:
робот инопланетянин человек

Внимание! Время в таблицах - всемирное. Для получения местного времени необходимо прибавить поправку, которая равна 9.5 ч.

Смотрите также архив погоды в соседних городах и на ближайших метеорологических станциях:

Погода в Джайлсе (Западная Австралия, Австралия) (224 км)
Погода в Юларе (Северная территория, Австралия) (270 км)
Погода в Раббит Флат (Северная территория, Австралия) (350 км)
Погода в Уорбертоне (Западная Австралия, Австралия) (425 км)
Погода в Эрнабелле (Южная Австралия, Австралия) (438 км)
Погода на Виноградной ферма (Северная территория, Австралия) (446 км)
Погода в Элис-Спрингсе (Северная территория, Австралия) (464 км)
Погода в Ладжаману (Северная территория, Австралия) (565 км)
Погода в Холс Крик (Западная Австралия, Австралия) (588 км)
Погода в Теннант-Крике (Северная территория, Австралия) (642 км)

Пояснения к столбцам:

Ветер - указаны скорость ветра в м/с - средняя за 10 мин, порывы в срок и между сроками (в фигурных скобках) и направление, откуда дует ветер: С - северный, СВ - северо-восточный, В - восточный, ЮВ - юго-восточный, Ю - южный, ЮЗ - юго-западный, З - западный, СЗ - северо-западный.
Видимость - горизонтальная дальность видимости в метрах или километрах. При видимости от 1 до 10 км при отсутствии осадков обычно наблюдается дымка, при ухудшении видимости до 1 км и менее - туман. В сухую погоду видимость может ухудшаться дымом, пылью или мглою.
Явления - указаны атмосферные явления, наблюдавшиеся в срок или в последний час перед сроком; фигурными скобками обозначены явления, наблюдавшиеся между сроками (за 1-3 часа до срока); квадратными скобками обозначены град или гололедные отложения с указанием их диаметра в мм.
Облачность - указаны через наклонную черту общая и нижняя облачность в баллах и высота нижней границы облаков в метрах; квадратными скобками обозначены формы облаков: Ci - перистые, Cs - перисто-слоистые, Cc - перисто-кучевые, Ac - высококучевые, As - высокослоистые, Sc - слоисто-кучевые, Ns - слоисто-дождевые, Cu - кучевые, Cb - кучево-дождевые. Подробнее классификацию облаков см. в Атласе облаков (PDF).
T - Температура воздуха - температура, измеренная на высоте 2 м над землей.
Td - Температура точки росы - температура, при понижении до которой содержащийся в воздухе водяной пар достигнет насыщения.
f - Относительная влажность воздуха - влажноcть воздуха, измеренная на высоте 2 м над землей.
Te - Эффективная температура - температура, которую ощущает одетый по сезону человек в тени. Характеристика душности погоды. При расчете учитывается влияние влажности воздуха и скорости ветра на теплоощущения человека.
Tes - Эффективная температура на солнце - температура, которую ощущает человек, с поправкой на солнечный нагрев. Характеристика знойности погоды. Зависит от высоты солнца над горизонтом, облачности и скорости ветра. Ночью, в пасмурную погоду, а также при ветре 12 м/с и более поправка равна нулю.
P - Атмосферное давление - приведенное к уровню моря атмосферное давление.
Po - Атмосферное давление - измеренное на уровне метеостанции атмосферное давление.
Tmin - Минимальная температура - минимум температуры воздуха на высоте 2 м над землей.
Tmax - Максимальная температура - максимум температуры воздуха на высоте 2 м над землей.
R - Количество осадков - Количество выпавших осадков за период времени, мм. При наведении курсора мыши на число - период времени, за который выпало указанное количество осадков.
R24 - Количество осадков - Количество выпавших осадков за 24 часа, мм.
S - Снежный покров - Высота снежного покрова, см. При наведении курсора мыши на число - состояние снежного покрова и степень покрытия местности в баллах.